Time,TemperatureF,DewpointF,PressureIn,WindDirection,WindDirectionDegrees,WindSpeedMPH,WindSpeedGustMPH,Humidity,HourlyPrecipIn,Conditions,Clouds,dailyrainin,SolarRadiationWatts/m^2,SoftwareType,DateUTC
2013-03-31 00:03:00,67.0,-99.9,-100.00,SE,127,5.0,-999.0,65,0.00,,,-99.99,0.000000,,2013-03-31 04:03:00,
2013-03-31 00:13:00,67.0,55.0,-100.00,ESE,121,4.0,-999.0,66,0.00,,,-99.99,0.000000,,2013-03-31 04:13:00,
2013-03-31 00:23:00,67.0,55.0,-100.00,ESE,121,4.0,-999.0,66,0.00,,,-99.99,0.000000,,2013-03-31 04:23:00,
2013-03-31 00:33:00,67.0,55.0,-100.00,SE,128,4.0,-999.0,66,0.00,,,-99.99,0.000000,,2013-03-31 04:33:00,
2013-03-31 00:42:00,67.0,56.0,-100.00,SE,135,4.0,-999.0,66,0.00,,,-99.99,0.000000,,2013-03-31 04:42:00,
2013-03-31 00:53:00,67.0,56.0,-100.00,SE,135,4.0,-999.0,66,0.00,,,-99.99,0.000000,,2013-03-31 04:53:00,
2013-03-31 01:02:00,67.0,56.0,-100.00,SSE,151,6.0,-999.0,66,0.00,,,-99.99,0.000000,,2013-03-31 05:02:00,
2013-03-31 01:12:00,67.0,55.0,-100.00,SSE,149,5.0,-999.0,65,0.00,,,-99.99,0.000000,,2013-03-31 05:12:00,
2013-03-31 01:22:00,67.0,55.0,-100.00,SSE,149,5.0,-999.0,65,0.00,,,-99.99,0.000000,,2013-03-31 05:22:00,
2013-03-31 01:32:00,67.0,55.0,-100.00,SSE,147,5.0,-999.0,66,0.00,,,-99.99,0.000000,,2013-03-31 05:32:00,
2013-03-31 01:42:00,67.0,55.0,-100.00,SE,143,4.0,-999.0,66,0.00,,,-99.99,0.000000,,2013-03-31 05:42:00,
2013-03-31 01:53:00,67.0,55.0,-100.00,SE,143,4.0,-999.0,66,0.00,,,-99.99,0.000000,,2013-03-31 05:53:00,
2013-03-31 02:02:00,67.0,56.0,-100.00,SE,145,4.0,-999.0,67,0.00,,,-99.99,0.000000,,2013-03-31 06:02:00,
2013-03-31 02:12:00,67.0,56.0,-100.00,SE,143,4.0,-999.0,67,0.00,,,-99.99,0.000000,,2013-03-31 06:12:00,
2013-03-31 02:22:00,67.0,56.0,-100.00,SE,143,4.0,-999.0,67,0.00,,,-99.99,0.000000,,2013-03-31 06:22:00,
2013-03-31 02:32:00,67.0,56.0,-100.00,SSE,148,4.0,-999.0,68,0.00,,,-99.99,0.000000,,2013-03-31 06:32:00,
2013-03-31 02:42:00,67.0,56.0,-100.00,SSE,152,4.0,-999.0,68,0.00,,,-99.99,0.000000,,2013-03-31 06:42:00,
2013-03-31 02:52:00,67.0,56.0,-100.00,SSE,152,4.0,-999.0,68,0.00,,,-99.99,0.000000,,2013-03-31 06:52:00,
2013-03-31 03:02:00,67.0,56.0,-100.00,SSE,148,5.0,-999.0,68,0.00,,,-99.99,0.000000,,2013-03-31 07:02:00,
2013-03-31 03:12:00,67.0,56.0,-100.00,SSE,148,4.0,-999.0,68,0.00,,,-99.99,0.000000,,2013-03-31 07:12:00,
2013-03-31 03:22:00,67.0,56.0,-100.00,SSE,148,4.0,-999.0,68,0.00,,,-99.99,0.000000,,2013-03-31 07:22:00,
2013-03-31 03:33:00,67.0,56.0,-100.00,SE,146,4.0,-999.0,69,0.00,,,-99.99,0.000000,,2013-03-31 07:33:00,
2013-03-31 03:43:00,66.0,56.0,-100.00,SE,143,4.0,-999.0,69,0.00,,,-99.99,0.000000,,2013-03-31 07:43:00,
2013-03-31 03:53:00,66.0,56.0,-100.00,SE,143,4.0,-999.0,69,0.00,,,-99.99,0.000000,,2013-03-31 07:53:00,
2013-03-31 04:02:00,66.0,56.0,-100.00,SSE,148,4.0,-999.0,70,0.00,,,-99.99,0.000000,,2013-03-31 08:02:00,
2013-03-31 04:12:00,67.0,56.0,-100.00,SSE,152,3.0,-999.0,69,0.00,,,-99.99,0.000000,,2013-03-31 08:12:00,
2013-03-31 04:22:00,67.0,56.0,-100.00,SSE,152,3.0,-999.0,69,0.00,,,-99.99,0.000000,,2013-03-31 08:22:00,
2013-03-31 04:32:00,66.0,56.0,-100.00,SSE,147,4.0,-999.0,70,0.00,,,-99.99,0.000000,,2013-03-31 08:32:00,
2013-03-31 04:42:00,66.0,56.0,-100.00,SSE,154,3.0,-999.0,70,0.00,,,-99.99,0.000000,,2013-03-31 08:42:00,
2013-03-31 04:52:00,66.0,56.0,-100.00,SSE,154,3.0,-999.0,70,0.00,,,-99.99,0.000000,,2013-03-31 08:52:00,
2013-03-31 05:02:00,66.0,56.0,-100.00,SSE,166,2.0,-999.0,70,0.00,,,-99.99,0.000000,,2013-03-31 09:02:00,
2013-03-31 05:12:00,65.0,56.0,-100.00,SSE,161,1.0,-999.0,72,0.00,,,-99.99,0.000000,,2013-03-31 09:12:00,
2013-03-31 05:22:00,65.0,56.0,-100.00,SSE,161,1.0,-999.0,72,0.00,,,-99.99,0.000000,,2013-03-31 09:22:00,
2013-03-31 05:33:00,64.0,56.0,-100.00,SE,136,2.0,-999.0,74,0.00,,,-99.99,0.000000,,2013-03-31 09:33:00,
2013-03-31 05:42:00,63.0,55.0,-100.00,SE,132,2.0,-999.0,76,0.00,,,-99.99,0.000000,,2013-03-31 09:42:00,
2013-03-31 05:53:00,63.0,55.0,-100.00,SE,132,2.0,-999.0,76,0.00,,,-99.99,0.000000,,2013-03-31 09:53:00,
2013-03-31 06:03:00,63.0,56.0,-100.00,ESE,104,1.0,-999.0,78,0.00,,,-99.99,0.000000,,2013-03-31 10:03:00,
2013-03-31 06:13:00,62.0,56.0,-100.00,SSE,148,1.0,-999.0,80,0.00,,,-99.99,0.000000,,2013-03-31 10:13:00,
2013-03-31 06:24:00,62.0,56.0,-100.00,SSE,148,1.0,-999.0,80,0.00,,,-99.99,0.000000,,2013-03-31 10:24:00,
2013-03-31 06:32:00,62.0,57.0,-100.00,East,82,1.0,-999.0,82,0.00,,,-99.99,0.000000,,2013-03-31 10:32:00,
2013-03-31 06:42:00,62.0,57.0,-100.00,South,174,2.0,-999.0,83,0.00,,,-99.99,0.000000,,2013-03-31 10:42:00,
2013-03-31 06:53:00,62.0,57.0,-100.00,South,174,2.0,-999.0,83,0.00,,,-99.99,0.000000,,2013-03-31 10:53:00,
2013-03-31 07:02:00,62.0,57.0,-100.00,SSE,154,1.0,-999.0,84,0.00,,,-99.99,0.000000,,2013-03-31 11:02:00,
2013-03-31 07:12:00,62.0,58.0,-100.00,SSW,204,1.0,-999.0,86,0.00,,,-99.99,0.000000,,2013-03-31 11:12:00,
2013-03-31 07:23:00,62.0,58.0,-100.00,SSW,204,1.0,-999.0,86,0.00,,,-99.99,0.000000,,2013-03-31 11:23:00,
2013-03-31 07:32:00,62.0,58.0,-100.00,South,175,2.0,-999.0,86,0.00,,,-99.99,1.600000,,2013-03-31 11:32:00,
2013-03-31 07:42:00,62.0,58.0,-100.00,South,172,1.0,-999.0,86,0.00,,,-99.99,9.200000,,2013-03-31 11:42:00,
2013-03-31 07:53:00,62.0,58.0,-100.00,South,172,1.0,-999.0,86,0.00,,,-99.99,9.200000,,2013-03-31 11:53:00,
2013-03-31 08:03:00,62.0,58.0,-100.00,South,174,1.0,-999.0,86,0.00,,,-99.99,35.900002,,2013-03-31 12:03:00,
2013-03-31 08:12:00,63.0,59.0,-100.00,NE,37,1.0,-999.0,86,0.00,,,-99.99,79.599998,,2013-03-31 12:12:00,
2013-03-31 08:22:00,63.0,59.0,-100.00,NE,37,1.0,-999.0,86,0.00,,,-99.99,79.599998,,2013-03-31 12:22:00,
2013-03-31 08:33:00,64.0,60.0,-100.00,East,82,2.0,-999.0,86,0.00,,,-99.99,119.300003,,2013-03-31 12:33:00,
2013-03-31 08:42:00,66.0,62.0,-100.00,East,97,2.0,-999.0,85,0.00,,,-99.99,129.699997,,2013-03-31 12:42:00,
2013-03-31 08:53:00,66.0,62.0,-100.00,East,97,2.0,-999.0,85,0.00,,,-99.99,129.699997,,2013-03-31 12:53:00,
2013-03-31 09:02:00,69.0,63.0,-100.00,SE,140,2.0,-999.0,80,0.00,,,-99.99,176.500000,,2013-03-31 13:02:00,
2013-03-31 09:12:00,71.0,63.0,-100.00,SE,141,5.0,-999.0,74,0.00,,,-99.99,212.600006,,2013-03-31 13:12:00,
2013-03-31 09:22:00,71.0,63.0,-100.00,SE,141,5.0,-999.0,74,0.00,,,-99.99,212.600006,,2013-03-31 13:22:00,
2013-03-31 09:32:00,73.0,63.0,-100.00,SE,145,7.0,-999.0,71,0.00,,,-99.99,309.899994,,2013-03-31 13:32:00,
2013-03-31 09:42:00,73.0,63.0,-100.00,SE,136,8.0,-999.0,71,0.00,,,-99.99,248.300003,,2013-03-31 13:42:00,
2013-03-31 09:53:00,73.0,63.0,-100.00,SE,136,8.0,-999.0,71,0.00,,,-99.99,248.300003,,2013-03-31 13:53:00,
2013-03-31 10:02:00,73.0,63.0,-100.00,SE,135,9.0,-999.0,71,0.00,,,-99.99,290.000000,,2013-03-31 14:02:00,
2013-03-31 10:12:00,73.0,63.0,-100.00,SE,144,8.0,-999.0,70,0.00,,,-99.99,249.899994,,2013-03-31 14:12:00,
2013-03-31 10:22:00,73.0,63.0,-100.00,SE,144,8.0,-999.0,70,0.00,,,-99.99,249.899994,,2013-03-31 14:22:00,
2013-03-31 10:32:00,74.0,63.0,-100.00,SSE,151,8.0,-999.0,69,0.00,,,-99.99,412.100006,,2013-03-31 14:32:00,
2013-03-31 10:43:00,74.0,63.0,-100.00,SE,141,9.0,-999.0,68,0.00,,,-99.99,364.700012,,2013-03-31 14:43:00,
2013-03-31 10:52:00,74.0,63.0,-100.00,SE,141,9.0,-999.0,68,0.00,,,-99.99,364.700012,,2013-03-31 14:52:00,
2013-03-31 11:03:00,74.0,64.0,-100.00,SE,135,9.0,-999.0,69,0.00,,,-99.99,408.899994,,2013-03-31 15:03:00,
2013-03-31 11:13:00,76.0,65.0,-100.00,SE,130,10.0,-999.0,68,0.00,,,-99.99,647.700012,,2013-03-31 15:13:00,
2013-03-31 11:22:00,76.0,65.0,-100.00,SE,130,10.0,-999.0,68,0.00,,,-99.99,647.700012,,2013-03-31 15:22:00,
2013-03-31 11:33:00,76.0,65.0,-100.00,SE,133,10.0,-999.0,67,0.00,,,-99.99,558.700012,,2013-03-31 15:33:00,
2013-03-31 11:43:00,77.0,64.0,-100.00,SSE,159,11.0,-999.0,63,0.00,,,-99.99,879.000000,,2013-03-31 15:43:00,
2013-03-31 11:54:00,77.0,64.0,-100.00,SSE,159,11.0,-999.0,63,0.00,,,-99.99,879.000000,,2013-03-31 15:54:00,
2013-03-31 12:03:00,77.0,63.0,-100.00,SSE,149,12.0,-999.0,61,0.00,,,-99.99,709.000000,,2013-03-31 16:03:00,
2013-03-31 12:13:00,76.0,62.0,-100.00,SSE,148,12.0,-999.0,61,0.00,,,-99.99,458.100006,,2013-03-31 16:13:00,
2013-03-31 12:23:00,76.0,62.0,-100.00,SSE,148,12.0,-999.0,61,0.00,,,-99.99,458.100006,,2013-03-31 16:23:00,
2013-03-31 12:33:00,77.0,63.0,-100.00,SE,145,11.0,-999.0,61,0.00,,,-99.99,766.000000,,2013-03-31 16:33:00,
2013-03-31 12:43:00,78.0,62.0,-100.00,SE,146,10.0,-999.0,58,0.00,,,-99.99,776.000000,,2013-03-31 16:43:00,
2013-03-31 12:53:00,78.0,62.0,-100.00,SE,146,10.0,-999.0,58,0.00,,,-99.99,776.000000,,2013-03-31 16:53:00,
2013-03-31 13:03:00,78.0,62.0,-100.00,SE,146,11.0,-999.0,58,0.00,,,-99.99,717.000000,,2013-03-31 17:03:00,
2013-03-31 13:12:00,78.0,62.0,-100.00,SSE,154,12.0,-999.0,58,0.00,,,-99.99,894.000000,,2013-03-31 17:12:00,
2013-03-31 13:23:00,78.0,62.0,-100.00,SSE,154,12.0,-999.0,58,0.00,,,-99.99,894.000000,,2013-03-31 17:23:00,
2013-03-31 13:32:00,78.0,62.0,-100.00,SSE,165,10.0,-999.0,57,0.00,,,-99.99,715.000000,,2013-03-31 17:32:00,
2013-03-31 13:43:00,78.0,62.0,-100.00,SSE,168,11.0,-999.0,58,0.00,,,-99.99,751.000000,,2013-03-31 17:43:00,
2013-03-31 13:52:00,78.0,62.0,-100.00,SSE,168,11.0,-999.0,58,0.00,,,-99.99,751.000000,,2013-03-31 17:52:00,
2013-03-31 14:03:00,78.0,63.0,-100.00,SE,142,10.0,-999.0,58,0.00,,,-99.99,755.000000,,2013-03-31 18:03:00,
2013-03-31 14:13:00,77.0,63.0,-100.00,SE,142,11.0,-999.0,60,0.00,,,-99.99,657.400024,,2013-03-31 18:13:00,
2013-03-31 14:22:00,77.0,63.0,-100.00,SE,142,11.0,-999.0,60,0.00,,,-99.99,657.400024,,2013-03-31 18:22:00,
2013-03-31 14:32:00,78.0,63.0,-100.00,SSE,154,10.0,-999.0,59,0.00,,,-99.99,730.000000,,2013-03-31 18:32:00,
2013-03-31 14:42:00,78.0,63.0,-100.00,SSE,152,11.0,-999.0,60,0.00,,,-99.99,704.000000,,2013-03-31 18:42:00,
2013-03-31 14:53:00,78.0,63.0,-100.00,SSE,152,11.0,-999.0,60,0.00,,,-99.99,704.000000,,2013-03-31 18:53:00,
2013-03-31 15:03:00,78.0,64.0,-100.00,SSE,147,9.0,-999.0,60,0.00,,,-99.99,737.000000,,2013-03-31 19:03:00,
2013-03-31 15:12:00,78.0,64.0,-100.00,SE,142,11.0,-999.0,61,0.00,,,-99.99,761.000000,,2013-03-31 19:12:00,
2013-03-31 15:22:00,78.0,64.0,-100.00,SE,142,11.0,-999.0,61,0.00,,,-99.99,761.000000,,2013-03-31 19:22:00,
2013-03-31 15:33:00,79.0,64.0,-100.00,South,169,10.0,-999.0,60,0.00,,,-99.99,700.000000,,2013-03-31 19:33:00,
2013-03-31 15:43:00,79.0,64.0,-100.00,SSE,155,11.0,-999.0,60,0.00,,,-99.99,679.900024,,2013-03-31 19:43:00,
2013-03-31 15:54:00,79.0,64.0,-100.00,SSE,155,11.0,-999.0,60,0.00,,,-99.99,679.900024,,2013-03-31 19:54:00,
2013-03-31 16:03:00,78.0,65.0,-100.00,SE,145,9.0,-999.0,64,0.00,,,-99.99,519.700012,,2013-03-31 20:03:00,
2013-03-31 16:13:00,79.0,65.0,-100.00,SSE,167,8.0,-999.0,63,0.00,,,-99.99,508.399994,,2013-03-31 20:13:00,
2013-03-31 16:23:00,79.0,65.0,-100.00,SSE,167,8.0,-999.0,63,0.00,,,-99.99,508.399994,,2013-03-31 20:23:00,
2013-03-31 16:33:00,77.0,65.0,-100.00,SSE,152,10.0,-999.0,64,0.00,,,-99.99,370.299988,,2013-03-31 20:33:00,
2013-03-31 16:43:00,77.0,65.0,-100.00,SSE,154,10.0,-999.0,65,0.00,,,-99.99,356.100006,,2013-03-31 20:43:00,
2013-03-31 16:53:00,77.0,65.0,-100.00,SSE,154,10.0,-999.0,65,0.00,,,-99.99,356.100006,,2013-03-31 20:53:00,
2013-03-31 17:02:00,77.0,65.0,-100.00,SE,140,11.0,-999.0,65,0.00,,,-99.99,527.200012,,2013-03-31 21:02:00,
2013-03-31 17:13:00,78.0,65.0,-100.00,SSE,162,9.0,-999.0,64,0.00,,,-99.99,351.299988,,2013-03-31 21:13:00,
2013-03-31 17:22:00,78.0,65.0,-100.00,SSE,162,9.0,-999.0,64,0.00,,,-99.99,351.299988,,2013-03-31 21:22:00,
2013-03-31 17:34:00,77.0,65.0,-100.00,SSE,156,8.0,-999.0,66,0.00,,,-99.99,297.500000,,2013-03-31 21:34:00,
2013-03-31 17:43:00,77.0,65.0,-100.00,SSE,155,8.0,-999.0,66,0.00,,,-99.99,291.799988,,2013-03-31 21:43:00,
2013-03-31 17:54:00,77.0,65.0,-100.00,SSE,155,8.0,-999.0,66,0.00,,,-99.99,291.799988,,2013-03-31 21:54:00,
2013-03-31 18:03:00,76.0,65.0,-100.00,SSE,147,11.0,-999.0,69,0.00,,,-99.99,161.800003,,2013-03-31 22:03:00,
2013-03-31 18:13:00,76.0,65.0,-100.00,SSE,159,9.0,-999.0,68,0.00,,,-99.99,171.199997,,2013-03-31 22:13:00,
2013-03-31 18:23:00,76.0,65.0,-100.00,SSE,159,9.0,-999.0,68,0.00,,,-99.99,171.199997,,2013-03-31 22:23:00,
2013-03-31 18:33:00,76.0,65.0,-100.00,SSE,158,10.0,-999.0,68,0.00,,,-99.99,187.600006,,2013-03-31 22:33:00,
2013-03-31 18:43:00,76.0,66.0,-100.00,SSE,153,8.0,-999.0,70,0.00,,,-99.99,118.500000,,2013-03-31 22:43:00,
2013-03-31 18:53:00,76.0,66.0,-100.00,SSE,153,8.0,-999.0,70,0.00,,,-99.99,118.500000,,2013-03-31 22:53:00,
2013-03-31 19:03:00,75.0,65.0,-100.00,SSE,153,8.0,-999.0,71,0.00,,,-99.99,70.199997,,2013-03-31 23:03:00,
2013-03-31 19:13:00,75.0,65.0,-100.00,SSE,149,8.0,-999.0,70,0.00,,,-99.99,78.800003,,2013-03-31 23:13:00,
2013-03-31 19:22:00,75.0,65.0,-100.00,SSE,149,8.0,-999.0,70,0.00,,,-99.99,78.800003,,2013-03-31 23:22:00,
2013-03-31 19:32:00,75.0,65.0,-100.00,SSE,151,9.0,-999.0,71,0.00,,,-99.99,40.500000,,2013-03-31 23:32:00,
2013-03-31 19:42:00,75.0,65.0,-100.00,SSE,153,6.0,-999.0,72,0.00,,,-99.99,19.600000,,2013-03-31 23:42:00,
2013-03-31 19:53:00,75.0,65.0,-100.00,SSE,153,6.0,-999.0,72,0.00,,,-99.99,19.600000,,2013-03-31 23:53:00,
2013-03-31 20:02:00,74.0,65.0,-100.00,SSE,158,6.0,-999.0,73,0.00,,,-99.99,4.100000,,2013-04-01 00:02:00,
2013-03-31 20:13:00,74.0,65.0,-100.00,SSE,155,5.0,-999.0,73,0.00,,,-99.99,0.100000,,2013-04-01 00:13:00,
2013-03-31 20:22:00,74.0,65.0,-100.00,SSE,155,5.0,-999.0,73,0.00,,,-99.99,0.100000,,2013-04-01 00:22:00,
2013-03-31 20:32:00,74.0,65.0,-100.00,SSE,153,6.0,-999.0,74,0.00,,,-99.99,0.000000,,2013-04-01 00:32:00,
2013-03-31 20:43:00,74.0,65.0,-100.00,SE,146,5.0,-999.0,75,0.00,,,-99.99,0.000000,,2013-04-01 00:43:00,
2013-03-31 20:53:00,74.0,65.0,-100.00,SE,146,5.0,-999.0,75,0.00,,,-99.99,0.000000,,2013-04-01 00:53:00,
2013-03-31 21:03:00,73.0,65.0,-100.00,SSE,150,5.0,-999.0,75,0.00,,,-99.99,0.000000,,2013-04-01 01:03:00,
2013-03-31 21:13:00,73.0,65.0,-100.00,SE,146,5.0,-999.0,75,0.00,,,-99.99,0.000000,,2013-04-01 01:13:00,
2013-03-31 21:23:00,73.0,65.0,-100.00,SE,146,5.0,-999.0,75,0.00,,,-99.99,0.000000,,2013-04-01 01:23:00,
2013-03-31 21:32:00,73.0,65.0,-100.00,SE,146,5.0,-999.0,76,0.00,,,-99.99,0.000000,,2013-04-01 01:32:00,
2013-03-31 21:42:00,73.0,65.0,-100.00,SE,140,3.0,-999.0,76,0.00,,,-99.99,0.000000,,2013-04-01 01:42:00,
2013-03-31 21:53:00,73.0,65.0,-100.00,SE,140,3.0,-999.0,76,0.00,,,-99.99,0.000000,,2013-04-01 01:53:00,
2013-03-31 22:03:00,72.0,65.0,-100.00,SE,135,3.0,-999.0,77,0.00,,,-99.99,0.000000,,2013-04-01 02:03:00,
2013-03-31 22:13:00,72.0,65.0,-100.00,SE,139,3.0,-999.0,79,0.00,,,-99.99,0.000000,,2013-04-01 02:13:00,
2013-03-31 22:23:00,72.0,65.0,-100.00,SE,139,3.0,-999.0,79,0.00,,,-99.99,0.000000,,2013-04-01 02:23:00,
2013-03-31 22:33:00,72.0,65.0,-100.00,ESE,123,3.0,-999.0,80,0.00,,,-99.99,0.000000,,2013-04-01 02:33:00,
2013-03-31 22:42:00,71.0,65.0,-100.00,SE,128,3.0,-999.0,82,0.00,,,-99.99,0.000000,,2013-04-01 02:42:00,
2013-03-31 22:53:00,71.0,65.0,-100.00,SE,128,3.0,-999.0,82,0.00,,,-99.99,0.000000,,2013-04-01 02:53:00,
2013-03-31 23:03:00,71.0,66.0,-100.00,SE,131,3.0,-999.0,82,0.00,,,-99.99,0.000000,,2013-04-01 03:03:00,
2013-03-31 23:12:00,71.0,66.0,-100.00,SE,143,4.0,-999.0,83,0.00,,,-99.99,0.000000,,2013-04-01 03:12:00,
2013-03-31 23:22:00,71.0,66.0,-100.00,SE,143,4.0,-999.0,83,0.00,,,-99.99,0.000000,,2013-04-01 03:22:00,
2013-03-31 23:34:00,71.0,66.0,-100.00,SSE,147,4.0,-999.0,82,0.00,,,-99.99,0.000000,,2013-04-01 03:34:00,
2013-03-31 23:43:00,71.0,66.0,-100.00,SSE,159,3.0,-999.0,82,0.00,,,-99.99,0.000000,,2013-04-01 03:43:00,
2013-03-31 23:53:00,71.0,66.0,-100.00,SSE,159,3.0,-999.0,82,0.00,,,-99.99,0.000000,,2013-04-01 03:53:00,